timestamp,wind_dir_avg,wind_spd_avg,wind_spd_max_dir,wind_spd_gust,battery_voltage,lat,long
2021-01-31 00:04:01+00:00,17.0,5.57,13.0,6.41,12.49,47.59359,-54.27349
2021-01-31 00:14:01+00:00,7.0,4.92,356.0,6.01,12.41,47.59359,-54.27349
2021-01-31 00:24:01+00:00,9.0,6.09,7.0,7.71,12.41,47.59359,-54.27349
2021-01-31 00:34:01+00:00,6.0,5.98,1.0,6.9,12.41,47.59359,-54.27349
2021-01-31 00:44:01+00:00,355.0,6.29,346.0,7.67,12.41,47.59359,-54.27349
2021-01-31 00:54:01+00:00,351.0,5.57,340.0,6.7,12.41,47.59359,-54.27349
2021-01-31 01:04:01+00:00,1.0,4.69,357.0,5.36,12.41,47.59359,-54.27349
2021-01-31 01:14:01+00:00,350.0,6.05,358.0,7.08,12.41,47.59359,-54.27349
2021-01-31 01:24:01+00:00,353.0,4.74,347.0,6.01,12.41,47.59359,-54.27349
2021-01-31 01:34:01+00:00,353.0,5.46,355.0,6.5,12.41,47.59359,-54.27349
2021-01-31 01:44:01+00:00,359.0,5.45,359.0,6.24,12.41,47.59359,-54.27349
2021-01-31 01:54:01+00:00,354.0,6.49,355.0,7.33,12.41,47.59359,-54.27349
2021-01-31 02:04:01+00:00,331.0,5.28,331.0,6.47,12.41,47.59359,-54.27349
2021-01-31 02:14:01+00:00,353.0,5.66,342.0,7.37,12.41,47.59359,-54.27349
2021-01-31 02:24:01+00:00,336.0,5.82,339.0,6.61,12.41,47.59359,-54.27349
2021-01-31 02:34:01+00:00,335.0,5.61,337.0,6.48,12.41,47.59359,-54.27349
2021-01-31 02:44:01+00:00,332.0,5.51,332.0,6.18,12.41,47.59359,-54.27349
2021-01-31 02:54:01+00:00,347.0,4.86,343.0,5.87,12.41,47.59359,-54.27349
2021-01-31 03:04:01+00:00,337.0,5.39,335.0,6.1,12.41,47.59359,-54.27349
2021-01-31 03:14:01+00:00,333.0,4.74,341.0,5.62,12.33,47.59359,-54.27349
2021-01-31 03:24:01+00:00,343.0,5.68,348.0,6.69,12.33,47.59359,-54.27349
2021-01-31 03:34:01+00:00,335.0,5.92,336.0,6.49,12.33,47.59359,-54.27349
2021-01-31 03:44:01+00:00,327.0,5.84,327.0,6.64,12.33,47.59359,-54.27349
2021-01-31 03:54:01+00:00,343.0,5.34,337.0,6.36,12.33,47.59359,-54.27349
2021-01-31 04:04:01+00:00,346.0,6.22,350.0,7.12,12.33,47.59359,-54.27349
2021-01-31 04:14:01+00:00,345.0,6.68,339.0,7.76,12.41,47.59359,-54.27349
2021-01-31 04:24:01+00:00,354.0,5.39,352.0,6.16,12.41,47.59359,-54.27349
2021-01-31 04:34:01+00:00,6.0,6.81,1.0,7.79,12.41,47.59359,-54.27349
2021-01-31 04:44:01+00:00,346.0,8.45,345.0,9.89,12.41,47.59359,-54.27349
2021-01-31 04:54:01+00:00,359.0,8.41,359.0,9.24,12.41,47.59359,-54.27349
2021-01-31 05:04:01+00:00,5.0,8.0,9.0,9.47,12.41,47.59359,-54.27349
2021-01-31 05:14:01+00:00,5.0,8.3,4.0,9.78,12.33,47.59359,-54.27349
2021-01-31 05:24:01+00:00,2.0,7.23,1.0,8.43,12.33,47.59359,-54.27349
2021-01-31 05:34:01+00:00,1.0,7.77,358.0,8.59,12.33,47.59359,-54.27349
2021-01-31 05:44:01+00:00,358.0,7.45,359.0,8.34,12.33,47.59359,-54.27349
2021-01-31 05:54:01+00:00,353.0,6.87,344.0,8.55,12.33,47.59359,-54.27349
2021-01-31 06:04:01+00:00,352.0,6.65,356.0,7.8,12.33,47.59359,-54.27349
2021-01-31 06:14:01+00:00,352.0,6.38,345.0,7.28,12.33,47.59359,-54.27349
2021-01-31 06:24:01+00:00,355.0,6.87,348.0,7.69,12.33,47.59359,-54.27349
2021-01-31 06:34:01+00:00,348.0,6.78,347.0,7.77,12.33,47.59359,-54.27349
2021-01-31 06:44:01+00:00,353.0,7.36,352.0,8.06,12.33,47.59359,-54.27349
2021-01-31 06:54:01+00:00,356.0,7.05,2.0,7.81,12.33,47.59359,-54.27349
2021-01-31 07:04:01+00:00,349.0,8.14,350.0,9.19,12.33,47.59359,-54.27349
2021-01-31 07:14:01+00:00,355.0,6.99,359.0,8.21,12.33,47.59359,-54.27349
2021-01-31 07:24:01+00:00,356.0,7.52,355.0,10.12,12.33,47.59359,-54.27349
2021-01-31 07:34:01+00:00,352.0,6.79,348.0,7.73,12.33,47.59359,-54.27349
2021-01-31 07:44:01+00:00,0.0,7.37,1.0,8.41,12.33,47.59359,-54.27349
2021-01-31 07:54:01+00:00,356.0,8.34,1.0,9.73,12.33,47.59359,-54.27349
2021-01-31 08:04:01+00:00,1.0,6.99,12.0,8.58,12.33,47.59359,-54.27349
2021-01-31 08:14:01+00:00,356.0,6.41,349.0,7.12,12.33,47.59359,-54.27349
2021-01-31 08:24:01+00:00,354.0,6.22,6.0,7.29,12.33,47.59359,-54.27349
2021-01-31 08:34:01+00:00,349.0,7.86,353.0,8.98,12.33,47.59359,-54.27349
2021-01-31 08:44:01+00:00,2.0,7.97,8.0,9.41,12.33,47.59359,-54.27349
2021-01-31 08:54:01+00:00,1.0,8.76,3.0,10.91,12.33,47.59359,-54.27349
2021-01-31 09:04:01+00:00,359.0,8.04,0.0,8.99,12.33,47.59359,-54.27349
2021-01-31 09:14:01+00:00,4.0,7.68,4.0,8.73,12.33,47.59359,-54.27349
2021-01-31 09:24:01+00:00,357.0,7.42,353.0,9.29,12.33,47.59359,-54.27349
2021-01-31 09:34:01+00:00,353.0,8.13,355.0,9.59,12.33,47.59359,-54.27349
2021-01-31 09:44:01+00:00,350.0,8.46,352.0,9.51,12.33,47.59359,-54.27349
2021-01-31 09:54:01+00:00,1.0,7.82,6.0,9.12,12.33,47.59359,-54.27349
2021-01-31 10:04:01+00:00,3.0,9.1,5.0,9.97,12.33,47.59359,-54.27349
2021-01-31 10:14:01+00:00,1.0,8.14,2.0,9.44,12.25,47.59359,-54.27349
2021-01-31 10:24:01+00:00,1.0,8.56,358.0,9.32,12.25,47.59359,-54.27349
2021-01-31 10:34:01+00:00,0.0,6.44,12.0,7.45,12.25,47.59359,-54.27349
2021-01-31 10:44:01+00:00,3.0,8.4,5.0,9.33,12.25,47.59359,-54.27349
2021-01-31 10:54:01+00:00,359.0,7.91,2.0,8.82,12.25,47.59359,-54.27349
2021-01-31 11:04:01+00:00,358.0,7.61,359.0,8.54,12.25,47.59359,-54.27349
2021-01-31 11:14:01+00:00,8.0,7.56,359.0,8.9,12.25,47.59359,-54.27349
2021-01-31 11:24:01+00:00,1.0,7.88,0.0,8.75,12.25,47.59359,-54.27349
2021-01-31 11:34:01+00:00,9.0,7.52,18.0,8.7,12.25,47.59359,-54.27349
2021-01-31 11:44:01+00:00,3.0,7.04,6.0,8.24,12.25,47.59359,-54.27349
2021-01-31 11:54:01+00:00,4.0,7.17,4.0,8.75,12.25,47.59359,-54.27349
2021-01-31 12:04:01+00:00,1.0,6.59,4.0,7.74,12.25,47.59359,-54.27349
2021-01-31 12:14:01+00:00,6.0,5.72,3.0,6.35,12.49,47.59359,-54.27349
2021-01-31 12:24:01+00:00,350.0,5.06,346.0,5.63,12.49,47.59359,-54.27349
2021-01-31 12:34:01+00:00,355.0,5.58,9.0,7.08,12.49,47.59359,-54.27349
2021-01-31 12:44:01+00:00,352.0,5.46,347.0,6.09,12.49,47.59359,-54.27349
2021-01-31 12:54:01+00:00,6.0,5.89,7.0,7.17,12.49,47.59359,-54.27349
2021-01-31 13:04:01+00:00,5.0,5.74,8.0,6.42,12.49,47.59359,-54.27349
2021-01-31 13:14:01+00:00,354.0,5.33,350.0,5.86,13.29,47.59359,-54.27349
2021-01-31 13:24:01+00:00,12.0,6.31,15.0,7.21,13.29,47.59359,-54.27349
2021-01-31 13:34:01+00:00,21.0,6.41,27.0,8.09,13.29,47.59359,-54.27349
2021-01-31 13:44:01+00:00,14.0,7.18,25.0,8.65,13.29,47.59359,-54.27349
2021-01-31 13:54:01+00:00,16.0,8.02,16.0,9.42,13.29,47.59359,-54.27349
2021-01-31 14:04:01+00:00,15.0,8.49,15.0,9.6,13.29,47.59359,-54.27349
2021-01-31 14:14:01+00:00,18.0,8.15,16.0,8.96,13.84,47.59359,-54.27349
2021-01-31 14:24:01+00:00,16.0,7.71,24.0,8.54,13.84,47.59359,-54.27349
2021-01-31 14:34:01+00:00,20.0,8.21,25.0,9.68,13.84,47.59359,-54.27349
2021-01-31 14:44:01+00:00,18.0,7.85,14.0,9.3,13.84,47.59359,-54.27349
2021-01-31 14:54:01+00:00,22.0,8.78,21.0,10.65,13.84,47.59359,-54.27349
2021-01-31 15:04:01+00:00,16.0,8.18,18.0,9.19,13.84,47.59359,-54.27349
2021-01-31 15:14:01+00:00,15.0,9.67,19.0,10.95,13.76,47.59359,-54.27349
2021-01-31 15:24:01+00:00,16.0,9.81,15.0,10.72,13.76,47.59359,-54.27349
2021-01-31 15:34:01+00:00,15.0,10.25,16.0,12.09,13.76,47.59359,-54.27349
2021-01-31 15:44:01+00:00,17.0,10.29,13.0,11.73,13.76,47.59359,-54.27349
2021-01-31 15:54:01+00:00,12.0,9.69,11.0,12.05,13.76,47.59359,-54.27349
2021-01-31 16:04:01+00:00,25.0,8.78,15.0,10.15,13.76,47.59359,-54.27349
2021-01-31 16:14:01+00:00,14.0,11.08,14.0,12.81,13.84,47.59359,-54.27349
2021-01-31 16:24:01+00:00,16.0,8.93,13.0,10.72,13.84,47.59359,-54.27349
2021-01-31 16:34:01+00:00,13.0,9.08,11.0,10.41,13.84,47.59359,-54.27349
2021-01-31 16:44:01+00:00,12.0,9.2,10.0,11.21,13.84,47.59359,-54.27349
2021-01-31 16:54:01+00:00,22.0,9.18,26.0,10.27,13.84,47.59359,-54.27349
2021-01-31 17:04:01+00:00,11.0,9.72,16.0,11.79,13.84,47.59359,-54.27349
2021-01-31 17:14:01+00:00,1.0,9.18,3.0,10.9,13.76,47.59359,-54.27349
2021-01-31 17:24:01+00:00,7.0,9.45,12.0,10.95,13.76,47.59359,-54.27349
2021-01-31 17:34:01+00:00,3.0,9.8,5.0,10.65,13.76,47.59359,-54.27349
2021-01-31 17:44:01+00:00,14.0,10.73,14.0,12.0,13.76,47.59359,-54.27349
2021-01-31 17:54:01+00:00,3.0,10.55,4.0,11.68,13.76,47.59359,-54.27349
2021-01-31 18:04:01+00:00,357.0,10.12,2.0,11.57,13.76,47.59359,-54.27349
2021-01-31 18:14:01+00:00,3.0,10.75,6.0,12.46,13.76,47.59359,-54.27349
2021-01-31 18:24:01+00:00,6.0,11.52,7.0,13.08,13.76,47.59359,-54.27349
2021-01-31 18:34:01+00:00,12.0,10.65,13.0,13.08,13.76,47.59359,-54.27349
2021-01-31 18:44:01+00:00,2.0,10.81,2.0,12.15,13.76,47.59359,-54.27349
2021-01-31 18:54:01+00:00,20.0,11.0,17.0,12.58,13.76,47.59359,-54.27349
2021-01-31 19:04:01+00:00,5.0,9.95,6.0,11.31,13.76,47.59359,-54.27349
2021-01-31 19:14:01+00:00,7.0,8.56,10.0,11.46,13.37,47.59359,-54.27349
2021-01-31 19:24:01+00:00,14.0,10.28,16.0,11.82,13.37,47.59359,-54.27349
2021-01-31 19:34:01+00:00,8.0,9.25,6.0,10.59,13.37,47.59359,-54.27349
2021-01-31 19:44:01+00:00,2.0,9.59,359.0,11.59,13.37,47.59359,-54.27349
2021-01-31 19:54:01+00:00,5.0,9.87,2.0,11.55,13.37,47.59359,-54.27349
2021-01-31 20:04:01+00:00,5.0,9.37,6.0,10.9,13.37,47.59359,-54.27349
2021-01-31 20:14:01+00:00,354.0,11.05,354.0,12.17,12.97,47.59359,-54.27349
2021-01-31 20:24:01+00:00,4.0,8.94,3.0,9.84,12.97,47.59359,-54.27349
2021-01-31 20:34:01+00:00,356.0,8.59,351.0,9.72,12.97,47.59359,-54.27349
2021-01-31 20:44:01+00:00,0.0,8.66,353.0,10.92,12.97,47.59359,-54.27349
2021-01-31 20:54:01+00:00,3.0,10.48,3.0,12.22,12.97,47.59359,-54.27349
2021-01-31 21:04:01+00:00,3.0,11.49,3.0,13.59,12.97,47.59359,-54.27349
2021-01-31 21:14:01+00:00,3.0,10.11,359.0,11.51,12.57,47.59359,-54.27349
2021-01-31 21:24:01+00:00,359.0,9.08,356.0,10.29,12.57,47.59359,-54.27349
2021-01-31 21:34:01+00:00,2.0,10.07,5.0,12.68,12.57,47.59359,-54.27349
2021-01-31 21:44:01+00:00,2.0,8.93,8.0,9.94,12.57,47.59359,-54.27349
2021-01-31 21:54:01+00:00,5.0,8.73,8.0,9.88,12.57,47.59359,-54.27349
2021-01-31 22:04:01+00:00,0.0,9.82,2.0,10.99,12.57,47.59359,-54.27349
2021-01-31 22:14:01+00:00,356.0,10.24,356.0,12.04,12.57,47.59359,-54.27349
2021-01-31 22:24:01+00:00,350.0,6.81,345.0,8.71,12.57,47.59359,-54.27349
2021-01-31 22:34:01+00:00,349.0,9.76,347.0,10.92,12.57,47.59359,-54.27349
2021-01-31 22:44:01+00:00,355.0,8.51,349.0,11.22,12.57,47.59359,-54.27349
2021-01-31 22:54:01+00:00,350.0,9.61,350.0,10.65,12.57,47.59359,-54.27349
2021-01-31 23:04:01+00:00,346.0,7.94,348.0,9.24,12.57,47.59359,-54.27349
2021-01-31 23:14:01+00:00,354.0,8.32,8.0,9.64,12.49,47.59359,-54.27349
2021-01-31 23:24:01+00:00,353.0,7.69,355.0,8.89,12.49,47.59359,-54.27349
2021-01-31 23:34:01+00:00,348.0,8.02,359.0,9.6,12.49,47.59359,-54.27349
2021-01-31 23:44:01+00:00,346.0,8.07,347.0,9.55,12.49,47.59359,-54.27349
2021-01-31 23:54:01+00:00,352.0,8.1,350.0,9.64,12.49,47.59359,-54.27349
